Home   Weather   Melle   Past weeks

Flag for Germany Past Weather in Melle, Lower Saxony, Germany — Yesterday and Last 2 Weeks

Now
55 °F

Clear.


Feels Like: 54 °F
Forecast: 52 / 68 °F
Wind: 7 mph from Southwest

Location: Muenster / Osnabrueck

Current Time: Aug 20, 2017 at 6:19:26 am

Latest Report: Aug 20, 2017 at 5:50 am


Visibility: 10 mi

Pressure: 30.09 "Hg

Humidity: 88%

Dew Point: 52 °F

Location of MelleLocation

Past Weather in Melle — Graph

°F

Melle Temperature Yesterday

Maximum temperature yesterday: 66 °F (at 2:50 pm)
Minimum temperature yesterday: 54 °F (at 3:50 am)
Average temperature yesterday: 58 °F

High & Low Weather Summary for the Past Weeks

 TemperatureHumidityPressure
High81 °F (Aug 15, 3:20 pm)100% (Aug 6, 6:20 am)30.21 "Hg (Aug 6, 6:20 am)
Low48 °F (Aug 6, 6:20 am)36% (Aug 7, 1:50 pm)29.74 "Hg (Aug 8, 7:50 pm)
Average63 °F80%30.02 "Hg
* Reported Aug 5 5:20 am — Aug 20 5:20 am, Melle. Weather by CustomWeather, © 2017

Note: Actual official high and low records may vary slightly from our data, if they occured in-between our weather recording intervals... More about our weather records

Advertising

Melle Weather History for the Previous 24 Hours

Scroll right to see more
 ConditionsComfort  
Time TempWeatherWind HumidityBarometerVisibility
5:20 am
Sun, Aug 20
55 °FPassing clouds.7 mph88%30.09 "HgN/A
4:50 am55 °FClear.8 mph88%30.09 "Hg10 mi
4:20 am55 °FPartly cloudy.7 mph88%30.09 "HgN/A
3:50 am55 °FPartly cloudy.8 mph88%30.07 "HgN/A
3:20 am55 °FPassing clouds.6 mph94%30.07 "HgN/A
2:50 am55 °FPassing clouds.6 mph94%30.09 "HgN/A
2:20 am55 °FPartly cloudy.5 mph94%30.09 "HgN/A
1:50 am55 °FPartly cloudy.7 mph94%30.09 "HgN/A
1:20 am55 °FClear.7 mph94%30.07 "Hg10 mi
12:50 am55 °FClear.7 mph94%30.07 "Hg10 mi
12:20 am55 °FClear.6 mph94%30.07 "Hg10 mi
11:50 pm
Sat, Aug 19
55 °FClear.7 mph94%30.07 "Hg10 mi
11:20 pm55 °FPassing clouds.7 mph94%30.09 "HgN/A
10:50 pm57 °FClear.7 mph88%30.07 "Hg10 mi
10:20 pm57 °FClear.7 mph94%30.07 "Hg10 mi
9:50 pm57 °FClear.7 mph94%30.07 "Hg10 mi
9:20 pm57 °FClear.7 mph94%30.07 "Hg10 mi
8:50 pm57 °FPassing clouds.7 mph94%30.07 "HgN/A
8:20 pm59 °FSunny.7 mph88%30.04 "Hg10 mi
7:50 pm61 °FScattered clouds.5 mph83%30.04 "HgN/A
7:20 pm59 °FThundershowers. Scattered clouds.6 mph88%30.04 "HgN/A
6:50 pm59 °FThunderstorms. Broken clouds.8 mph88%30.04 "HgN/A
6:23 pm63 °FRain showers. Broken clouds.13 mph77%30.04 "Hg5 mi
6:20 pm64 °FSprinkles. Broken clouds.12 mph68%30.04 "Hg5 mi
5:50 pm64 °FScattered clouds.16 mph68%30.04 "HgN/A
5:20 pm64 °FPartly sunny.16 mph68%30.04 "HgN/A
4:50 pm64 °FScattered clouds.13 mph68%30.01 "HgN/A
4:20 pm64 °FScattered clouds.13 mph68%30.01 "HgN/A
3:50 pm64 °FPassing clouds.13 mph68%30.01 "HgN/A
3:20 pm61 °FSprinkles. Scattered clouds.17 mph83%30.01 "HgN/A
2:50 pm66 °FScattered clouds.16 mph60%30.01 "HgN/A
2:20 pm64 °FScattered clouds.15 mph64%29.98 "HgN/A
1:50 pm63 °FPartly sunny.10 mph73%29.98 "HgN/A
1:20 pm59 °FSprinkles. Broken clouds.17 mph82%29.98 "HgN/A
12:50 pm63 °FPartly sunny.17 mph68%29.98 "HgN/A
12:20 pm63 °FPartly sunny.16 mph68%29.98 "HgN/A
12:06 pm63 °FPartly sunny.17 mph68%29.98 "HgN/A
11:50 am61 °FPartly sunny.13 mph77%29.98 "HgN/A
11:20 am61 °FPartly sunny.15 mph72%29.95 "HgN/A
10:50 am59 °FPartly sunny.15 mph77%29.98 "HgN/A
10:20 am59 °FPartly sunny.16 mph77%29.95 "HgN/A
9:50 am59 °FPartly sunny.13 mph77%29.95 "HgN/A
9:20 am57 °FPartly sunny.13 mph82%29.95 "HgN/A
8:50 am57 °FBroken clouds.13 mph82%29.95 "HgN/A
8:20 am55 °FPassing clouds.12 mph88%29.95 "HgN/A
7:50 am55 °FPassing clouds.12 mph88%29.95 "HgN/A
7:20 am54 °FPassing clouds.10 mph94%29.95 "HgN/A
6:50 am54 °FPassing clouds.9 mph94%29.95 "HgN/A
6:20 am54 °FPassing clouds.9 mph94%29.92 "HgN/A
Weather by CustomWeather, © 2017

See weather overviewHow to use our weather pages